Regional Weather Roundup
Issued by NWS

Home | Current Version | Previous Version | Graphics & Text | Print | Product List | Glossary On
Versions: 1 2 3 4 5 6 7 8 9 10 11 12 13 14 15 16 17 18 19 20 21 22 23 24 25 26 27 28 29 30 31 32 33 34 35 36 37 38 39 40 41 42 43 44 45 46 47 48 49 50
000
ASUS43 KBIS 082102
RWRND

NORTH DAKOTA REGIONAL WEATHER ROUNDUP
NATIONAL WEATHER SERVICE BISMARCK ND
300 PM CST MON FEB 08 2016

NOTE: "FAIR" INDICATES FEW OR NO CLOUDS BELOW 12,000 FEET WITH NO
SIGNIFICANT WEATHER AND/OR OBSTRUCTIONS TO VISIBILITY.


NDZ001>003-009>011-017-082200-
NORTHWEST NORTH DAKOTA

CITY           SKY/WX    TMP DP  RH WIND       PRES   REMARKS
WILLISTON      CLOUDY    36  18  48 N13       30.30F
MINOT          CLOUDY    33  10  38 NW24G32   30.24F
MINOT AFB      CLOUDY    31  11  42 NW22      30.24F WCI  18
$$

NDZ018>021-031>035-040>046-082200-
SOUTHWEST NORTH DAKOTA

CITY           SKY/WX    TMP DP  RH WIND       PRES   REMARKS
BISMARCK       PTSUNNY   37  17  44 NW23G31   30.24S
DICKINSON      CLOUDY    34  10  37 NW23G29   30.24F
GARRISON         N/A     32  17  54 NW24G36   30.24S WCI  19
HETTINGER ARPT CLOUDY    37   9  31 NW22      30.25F
$$

NDZ004>008-012>016-024-026-027-054-082200-
NORTHEAST NORTH DAKOTA

CITY           SKY/WX    TMP DP  RH WIND       PRES   REMARKS
GRAND FORKS    LGT SNOW  14   6  70 N28G36    30.22R VSB 1   WCI  -6
GRND FRKS AFB  FLURRIES  14   7  72 N21G31    30.21S WCI  -4
DEVILS LAKE    CLOUDY    20  13  74 N24       30.20F WCI   3
$$

NDZ022-023-025-028>030-036>039-047>053-082200-
SOUTHEAST NORTH DAKOTA

CITY           SKY/WX    TMP DP  RH WIND       PRES   REMARKS
FARGO          SNOW      15   8  73 N30G38    30.18S VSB 1/2 WCI  -5
JAMESTOWN      CLOUDY    25  12  58 NW25G37   30.17S WCI   9
$$




USA.gov is the U.S. government's official web portal to all federal, state and local government web resources and services.